User: anonymous   Login
Location: Raven Hill Discovery Center
(45.1336°N, 85.0553°W)
Time: 07:47:32
(UTC-04:00)
Language:

Cosmos 1470 - Orbit

View from above orbital plane
View from above orbital plane
View from above satellite
View from above satellite

Ground track
Ground track

The orbit data is extracted from the following two-line orbital elements,

1 14147U 83061A   16121.37408143  .00001707  00000-0  10289-3 0  9994
2 14147  82.4832  84.1673 0013331 231.6705 128.3327 15.10082744542504
Epoch (UTC): 30 April 2016 08:58:40
Eccentricity: 0.0013331
inclination: 82.4832°
perigee height: 527 km
apogee height: 545 km
right ascension of ascending node: 84.1673°
argument of perigee: 231.6705°
revolutions per day: 15.10082744
mean anomaly at epoch: 128.3327°
orbit number at epoch: 54250

The dashed part of the orbit path shows where the satellite is in the earth's shadow,  

DLR